This is the latest recevied weather packets stored in our database for station/object N8WJW. If no packets are shown the sender has not sent any weather packets the latest 10 day(s).
| Time | Temp. | Humidity | Pressure | Rain* | Wind** | Luminosity | Snow |
|---|---|---|---|---|---|---|---|
| 1778154409 | 5.56° C | 92% | 1014 hPa | 0 mm | - | 55 W/m² | - |
| 1778154106 | 5.56° C | 92% | 1013.9 hPa | 0 mm | - | 59 W/m² | - |
| 1778153803 | 5° C | 94% | 1014 hPa | 0 mm | - | 53 W/m² | - |
| 1778153500 | 5° C | 95% | 1014.1 hPa | 0 mm | - | 50 W/m² | - |
| 1778153198 | 5° C | 97% | 1014 hPa | 0 mm | - | 48 W/m² | - |
| 1778152894 | 5° C | 97% | 1013.7 hPa | 0 mm | - | 38 W/m² | - |
| 1778152592 | 4.44° C | 97% | 1013.6 hPa | 0 mm | - | 32 W/m² | - |
| 1778152288 | 4.44° C | 98% | 1013.5 hPa | 0 mm | - | 30 W/m² | - |
| 1778151985 | 4.44° C | 98% | 1013.6 hPa | 0 mm | - | 27 W/m² | - |
| 1778151681 | 4.44° C | 98% | 1013.7 hPa | 0 mm | - | 20 W/m² | - |
| 1778151378 | 4.44° C | 98% | 1013.5 hPa | 0 mm | - | 17 W/m² | - |
| 1778151074 | 3.89° C | 98% | 1013.5 hPa | 0 mm | - | 18 W/m² | - |
| 1778150772 | 3.89° C | 98% | 1013.6 hPa | 0 mm | - | 14 W/m² | - |
| 1778150468 | 3.89° C | 98% | 1013.4 hPa | 0 mm | - | 11 W/m² | - |
| 1778150164 | 3.89° C | 98% | 1013.5 hPa | 0 mm | - | 8 W/m² | - |
| 1778149861 | 3.33° C | 98% | 1013.6 hPa | 0 mm | - | 7 W/m² | - |
| 1778149557 | 3.33° C | 98% | 1013.4 hPa | 0 mm | - | 5 W/m² | - |
| 1778149254 | 3.33° C | 98% | 1013.4 hPa | 0 mm | - | 3 W/m² | - |
| 1778148949 | 3.89° C | 98% | 1013.3 hPa | 0 mm | - | 2 W/m² | - |
| 1778148646 | 3.89° C | 98% | 1013.4 hPa | 0 mm | - | 1 W/m² | - |
| 1778148343 | 3.89° C | 98% | 1013.2 hPa | 0 mm | - | 0 W/m² | - |
| 1778148041 | 3.89° C | 98% | 1013.3 hPa | 0 mm | - | 0 W/m² | - |
| 1778147739 | 3.89° C | 98% | 1013.4 hPa | 0 mm | - | 0 W/m² | - |
| 1778147435 | 3.33° C | 98% | 1013.3 hPa | 0 mm | - | 0 W/m² | - |
| 1778147131 | 3.33° C | 98% | 1013.4 hPa | 0 mm | - | 0 W/m² | - |
* Rain latest hour (hover to see other rain measurements)
** Current wind speed in m/s (hover to see current wind gust speed)